Time,TemperatureF,DewpointF,PressureIn,WindDirection,WindDirectionDegrees,WindSpeedMPH,WindSpeedGustMPH,Humidity,HourlyPrecipIn,Conditions,Clouds,dailyrainin,SoftwareType,DateUTC
2013-04-30 00:01:00,50.9,48.9,30.25,SSE,159,2.0,2.0,93,0.00,,,0.00,Wunderground v.1.15,2013-04-30 04:01:00,
2013-04-30 00:06:00,50.9,48.9,30.25,SE,126,1.0,7.0,93,0.00,,,0.00,Wunderground v.1.15,2013-04-30 04:06:00,
2013-04-30 00:11:00,50.9,48.7,30.25,SE,128,1.0,1.0,92,0.00,,,0.00,Wunderground v.1.15,2013-04-30 04:11:00,
2013-04-30 00:16:00,50.8,48.8,30.25,SE,129,1.0,7.0,93,0.00,,,0.00,Wunderground v.1.15,2013-04-30 04:16:00,
2013-04-30 00:21:00,50.9,48.9,30.25,South,169,1.0,7.0,93,0.00,,,0.00,Wunderground v.1.15,2013-04-30 04:21:00,
2013-04-30 00:27:00,50.9,48.9,30.25,South,183,1.0,7.0,93,0.00,,,0.00,Wunderground v.1.15,2013-04-30 04:27:00,
2013-04-30 00:32:00,50.9,48.9,30.25,South,182,1.0,1.0,93,0.00,,,0.00,Wunderground v.1.15,2013-04-30 04:32:00,
2013-04-30 00:37:00,50.9,48.9,30.25,South,173,1.0,4.0,93,0.00,,,0.00,Wunderground v.1.15,2013-04-30 04:37:00,
2013-04-30 00:42:00,51.0,49.0,30.25,South,173,0.0,7.0,93,0.00,,,0.00,Wunderground v.1.15,2013-04-30 04:42:00,
2013-04-30 00:51:00,51.0,49.0,30.25,South,173,1.0,1.0,93,0.00,,,0.00,Wunderground v.1.15,2013-04-30 04:51:00,
2013-04-30 00:56:00,51.0,49.0,30.26,SE,138,0.0,7.0,93,0.00,,,0.00,Wunderground v.1.15,2013-04-30 04:56:00,
2013-04-30 01:02:00,51.0,49.0,30.25,SSW,197,0.0,7.0,93,0.00,,,0.00,Wunderground v.1.15,2013-04-30 05:02:00,
2013-04-30 01:12:00,51.1,49.1,30.25,ESE,113,1.0,1.0,93,0.00,,,0.00,Wunderground v.1.15,2013-04-30 05:12:00,
2013-04-30 01:17:00,51.1,49.1,30.25,ESE,123,0.0,2.0,93,0.00,,,0.00,Wunderground v.1.15,2013-04-30 05:17:00,
2013-04-30 01:22:00,51.1,49.1,30.25,ESE,116,1.0,1.0,93,0.00,,,0.00,Wunderground v.1.15,2013-04-30 05:22:00,
2013-04-30 01:27:00,51.1,49.1,30.25,SSE,150,1.0,7.0,93,0.00,,,0.00,Wunderground v.1.15,2013-04-30 05:27:00,
2013-04-30 01:32:00,51.2,49.2,30.25,SSE,150,0.0,7.0,93,0.00,,,0.00,Wunderground v.1.15,2013-04-30 05:32:00,
2013-04-30 01:37:00,51.2,49.2,30.25,ESE,121,1.0,7.0,93,0.00,,,0.00,Wunderground v.1.15,2013-04-30 05:37:00,
2013-04-30 01:42:00,51.1,49.1,30.25,SE,134,2.0,2.0,93,0.00,,,0.00,Wunderground v.1.15,2013-04-30 05:42:00,
2013-04-30 01:47:00,51.2,49.2,30.24,ESE,108,1.0,7.0,93,0.00,,,0.00,Wunderground v.1.15,2013-04-30 05:47:00,
2013-04-30 01:52:00,51.1,49.1,30.24,SE,130,1.0,7.0,93,0.00,,,0.00,Wunderground v.1.15,2013-04-30 05:52:00,
2013-04-30 01:57:00,51.2,49.2,30.24,SE,130,1.0,7.0,93,0.00,,,0.00,Wunderground v.1.15,2013-04-30 05:57:00,
2013-04-30 02:02:00,51.1,49.1,30.24,SE,130,0.0,0.0,93,0.00,,,0.00,Wunderground v.1.15,2013-04-30 06:02:00,
2013-04-30 02:12:00,51.1,49.1,30.24,South,173,0.0,0.0,93,0.00,,,0.00,Wunderground v.1.15,2013-04-30 06:12:00,
2013-04-30 02:22:00,51.2,49.2,30.24,ESE,115,1.0,1.0,93,0.00,,,0.00,Wunderground v.1.15,2013-04-30 06:22:00,
2013-04-30 02:27:00,51.1,49.1,30.24,ESE,115,0.0,1.0,93,0.00,,,0.00,Wunderground v.1.15,2013-04-30 06:27:00,
2013-04-30 02:32:00,51.1,49.1,30.24,ESE,115,0.0,0.0,93,0.00,,,0.00,Wunderground v.1.15,2013-04-30 06:32:00,
2013-04-30 02:37:00,51.1,49.1,30.24,ESE,102,0.0,0.0,93,0.00,,,0.00,Wunderground v.1.15,2013-04-30 06:37:00,
2013-04-30 02:42:00,51.0,49.0,30.24,ESE,102,0.0,1.0,93,0.00,,,0.00,Wunderground v.1.15,2013-04-30 06:42:00,
2013-04-30 02:47:00,51.0,49.0,30.24,ESE,102,0.0,1.0,93,0.00,,,0.00,Wunderground v.1.15,2013-04-30 06:47:00,
2013-04-30 02:52:00,51.0,49.0,30.24,ESE,102,0.0,0.0,93,0.00,,,0.00,Wunderground v.1.15,2013-04-30 06:52:00,
2013-04-30 02:57:00,51.1,49.1,30.24,ESE,102,0.0,0.0,93,0.00,,,0.00,Wunderground v.1.15,2013-04-30 06:57:00,
2013-04-30 03:02:00,51.1,49.1,30.24,ESE,102,0.0,0.0,93,0.00,,,0.00,Wunderground v.1.15,2013-04-30 07:02:00,
2013-04-30 03:07:00,51.1,49.1,30.24,ESE,102,0.0,0.0,93,0.00,,,0.00,Wunderground v.1.15,2013-04-30 07:07:00,
2013-04-30 03:12:00,51.1,49.1,30.24,ESE,102,0.0,5.0,93,0.00,,,0.00,Wunderground v.1.15,2013-04-30 07:12:00,
2013-04-30 03:17:00,51.1,49.1,30.24,ESE,102,0.0,5.0,93,0.00,,,0.00,Wunderground v.1.15,2013-04-30 07:17:00,
2013-04-30 03:22:00,51.0,49.0,30.24,ESE,102,0.0,5.0,93,0.00,,,0.00,Wunderground v.1.15,2013-04-30 07:22:00,
2013-04-30 03:27:00,51.0,49.0,30.24,ESE,102,0.0,5.0,93,0.00,,,0.00,Wunderground v.1.15,2013-04-30 07:27:00,
2013-04-30 03:32:00,51.0,49.0,30.24,ESE,102,0.0,5.0,93,0.00,,,0.00,Wunderground v.1.15,2013-04-30 07:32:00,
2013-04-30 03:42:00,51.0,49.0,30.24,ESE,102,0.0,5.0,93,0.00,,,0.00,Wunderground v.1.15,2013-04-30 07:42:00,
2013-04-30 03:47:00,51.0,49.0,30.24,ESE,102,0.0,5.0,93,0.00,,,0.00,Wunderground v.1.15,2013-04-30 07:47:00,
2013-04-30 03:52:00,51.0,49.0,30.25,ESE,102,0.0,5.0,93,0.00,,,0.00,Wunderground v.1.15,2013-04-30 07:52:00,
2013-04-30 03:57:00,51.0,49.0,30.24,ESE,102,0.0,5.0,93,0.00,,,0.00,Wunderground v.1.15,2013-04-30 07:57:00,
2013-04-30 04:02:00,51.0,49.0,30.25,ESE,102,0.0,5.0,93,0.00,,,0.00,Wunderground v.1.15,2013-04-30 08:02:00,
2013-04-30 04:07:00,51.0,49.0,30.25,ESE,102,0.0,5.0,93,0.00,,,0.00,Wunderground v.1.15,2013-04-30 08:07:00,
2013-04-30 04:12:00,51.0,49.0,30.25,ESE,102,0.0,5.0,93,0.00,,,0.00,Wunderground v.1.15,2013-04-30 08:12:00,
2013-04-30 04:17:00,51.0,48.8,30.25,ESE,102,0.0,5.0,92,0.00,,,0.00,Wunderground v.1.15,2013-04-30 08:17:00,
2013-04-30 04:22:00,51.0,48.8,30.25,ESE,102,0.0,5.0,92,0.00,,,0.00,Wunderground v.1.15,2013-04-30 08:22:00,
2013-04-30 04:27:00,51.0,48.8,30.25,ESE,102,0.0,5.0,92,0.00,,,0.00,Wunderground v.1.15,2013-04-30 08:27:00,
2013-04-30 04:37:00,51.1,48.6,30.25,NNE,25,1.0,5.0,91,0.00,,,0.00,Wunderground v.1.15,2013-04-30 08:37:00,
2013-04-30 04:42:00,51.2,48.7,30.25,ENE,63,1.0,1.0,91,0.00,,,0.00,Wunderground v.1.15,2013-04-30 08:42:00,
2013-04-30 04:47:00,51.2,48.7,30.26,ENE,72,1.0,5.0,91,0.00,,,0.00,Wunderground v.1.15,2013-04-30 08:47:00,
2013-04-30 04:57:00,51.3,48.5,30.26,East,84,1.0,5.0,90,0.00,,,0.00,Wunderground v.1.15,2013-04-30 08:57:00,
2013-04-30 05:02:00,51.3,48.5,30.26,ENE,77,1.0,1.0,90,0.00,,,0.00,Wunderground v.1.15,2013-04-30 09:02:00,
2013-04-30 05:07:00,51.2,48.4,30.26,NNE,22,1.0,2.0,90,0.00,,,0.00,Wunderground v.1.15,2013-04-30 09:07:00,
2013-04-30 05:12:00,51.2,48.1,30.26,NE,42,2.0,5.0,89,0.00,,,0.00,Wunderground v.1.15,2013-04-30 09:12:00,
2013-04-30 05:22:00,51.2,48.1,30.26,NE,42,2.0,2.0,89,0.00,,,0.00,Wunderground v.1.15,2013-04-30 09:22:00,
2013-04-30 05:27:00,51.2,48.1,30.26,ENE,61,2.0,5.0,89,0.00,,,0.00,Wunderground v.1.15,2013-04-30 09:27:00,
2013-04-30 05:32:00,51.2,48.1,30.26,NNE,27,1.0,1.0,89,0.00,,,0.00,Wunderground v.1.15,2013-04-30 09:32:00,
2013-04-30 05:37:00,51.1,48.3,30.26,NNE,28,1.0,3.0,90,0.00,,,0.00,Wunderground v.1.15,2013-04-30 09:37:00,
2013-04-30 05:42:00,51.0,47.9,30.26,NE,36,1.0,1.0,89,0.00,,,0.00,Wunderground v.1.15,2013-04-30 09:42:00,
2013-04-30 05:47:00,50.9,47.8,30.27,NNE,30,1.0,5.0,89,0.00,,,0.00,Wunderground v.1.15,2013-04-30 09:47:00,
2013-04-30 05:52:00,50.9,47.8,30.27,ESE,103,2.0,2.0,89,0.00,,,0.00,Wunderground v.1.15,2013-04-30 09:52:00,
2013-04-30 05:57:00,50.9,47.8,30.27,NE,44,1.0,5.0,89,0.00,,,0.00,Wunderground v.1.15,2013-04-30 09:57:00,
2013-04-30 06:02:00,50.9,47.8,30.27,NNE,32,1.0,1.0,89,0.00,,,0.00,Wunderground v.1.15,2013-04-30 10:02:00,
2013-04-30 06:07:00,50.9,47.8,30.27,ENE,61,1.0,5.0,89,0.00,,,0.00,Wunderground v.1.15,2013-04-30 10:07:00,
2013-04-30 06:12:00,50.9,47.8,30.27,NE,49,1.0,1.0,89,0.00,,,0.00,Wunderground v.1.15,2013-04-30 10:12:00,
2013-04-30 06:17:00,50.8,47.7,30.28,NE,49,1.0,5.0,89,0.00,,,0.00,Wunderground v.1.15,2013-04-30 10:17:00,
2013-04-30 06:27:00,50.8,47.4,30.28,ENE,76,1.0,5.0,88,0.00,,,0.00,Wunderground v.1.15,2013-04-30 10:27:00,
2013-04-30 06:32:00,50.8,47.4,30.28,East,98,1.0,1.0,88,0.00,,,0.00,Wunderground v.1.15,2013-04-30 10:32:00,
2013-04-30 06:37:00,50.8,47.4,30.28,ENE,66,1.0,5.0,88,0.00,,,0.00,Wunderground v.1.15,2013-04-30 10:37:00,
2013-04-30 06:47:00,50.8,47.4,30.29,NE,46,1.0,5.0,88,0.00,,,0.00,Wunderground v.1.15,2013-04-30 10:47:00,
2013-04-30 06:57:00,50.8,47.4,30.29,East,85,1.0,5.0,88,0.00,,,0.00,Wunderground v.1.15,2013-04-30 10:57:00,
2013-04-30 07:02:00,50.8,47.1,30.29,ENE,69,1.0,1.0,87,0.00,,,0.00,Wunderground v.1.15,2013-04-30 11:02:00,
2013-04-30 07:07:00,50.9,47.2,30.29,ENE,60,1.0,6.0,87,0.00,,,0.00,Wunderground v.1.15,2013-04-30 11:07:00,
2013-04-30 07:17:00,51.1,47.1,30.30,NE,48,1.0,5.0,86,0.00,,,0.00,Wunderground v.1.15,2013-04-30 11:17:00,
2013-04-30 07:22:00,51.2,47.2,30.30,NNE,30,1.0,1.0,86,0.00,,,0.00,Wunderground v.1.15,2013-04-30 11:22:00,
2013-04-30 07:27:00,51.4,47.4,30.30,NNE,28,1.0,4.0,86,0.00,,,0.00,Wunderground v.1.15,2013-04-30 11:27:00,
2013-04-30 07:32:00,51.5,47.1,30.30,East,96,1.0,5.0,85,0.00,,,0.00,Wunderground v.1.15,2013-04-30 11:32:00,
2013-04-30 07:37:00,51.7,47.3,30.30,ESE,116,2.0,5.0,85,0.00,,,0.00,Wunderground v.1.15,2013-04-30 11:37:00,
2013-04-30 07:42:00,51.8,47.4,30.30,SE,144,1.0,5.0,85,0.00,,,0.00,Wunderground v.1.15,2013-04-30 11:42:00,
2013-04-30 07:47:00,52.0,47.6,30.31,NE,38,1.0,5.0,85,0.00,,,0.00,Wunderground v.1.15,2013-04-30 11:47:00,
2013-04-30 07:57:00,52.3,47.9,30.31,NE,51,1.0,2.0,85,0.00,,,0.00,Wunderground v.1.15,2013-04-30 11:57:00,
2013-04-30 08:02:00,52.4,47.7,30.31,East,84,1.0,5.0,84,0.00,,,0.00,Wunderground v.1.15,2013-04-30 12:02:00,
2013-04-30 08:07:00,52.8,48.4,30.31,ENE,67,1.0,5.0,85,0.00,,,0.00,Wunderground v.1.15,2013-04-30 12:07:00,
2013-04-30 08:12:00,53.1,48.4,30.31,NE,54,1.0,1.0,84,0.00,,,0.00,Wunderground v.1.15,2013-04-30 12:12:00,
2013-04-30 08:17:00,53.3,48.3,30.31,East,82,1.0,2.0,83,0.00,,,0.00,Wunderground v.1.15,2013-04-30 12:17:00,
2013-04-30 08:22:00,53.6,48.6,30.31,ESE,115,1.0,5.0,83,0.00,,,0.00,Wunderground v.1.15,2013-04-30 12:22:00,
2013-04-30 08:27:00,53.7,48.7,30.32,SSW,201,2.0,5.0,83,0.00,,,0.00,Wunderground v.1.15,2013-04-30 12:27:00,
2013-04-30 08:32:00,54.1,49.4,30.32,NE,49,1.0,5.0,84,0.00,,,0.00,Wunderground v.1.15,2013-04-30 12:32:00,
2013-04-30 08:42:00,54.6,49.5,30.32,NE,50,2.0,5.0,83,0.00,,,0.00,Wunderground v.1.15,2013-04-30 12:42:00,
2013-04-30 08:47:00,54.6,49.5,30.32,SE,125,2.0,5.0,83,0.00,,,0.00,Wunderground v.1.15,2013-04-30 12:47:00,
2013-04-30 08:52:00,54.9,50.2,30.32,East,79,2.0,2.0,84,0.00,,,0.00,Wunderground v.1.15,2013-04-30 12:52:00,
2013-04-30 08:57:00,55.3,49.9,30.32,NE,55,2.0,5.0,82,0.00,,,0.00,Wunderground v.1.15,2013-04-30 12:57:00,
2013-04-30 09:02:00,55.7,50.3,30.32,ENE,68,2.0,2.0,82,0.00,,,0.00,Wunderground v.1.15,2013-04-30 13:02:00,
2013-04-30 09:07:00,55.9,50.5,30.32,East,98,1.0,5.0,82,0.00,,,0.00,Wunderground v.1.15,2013-04-30 13:07:00,
2013-04-30 09:12:00,56.6,51.2,30.32,ESE,103,1.0,1.0,82,0.00,,,0.00,Wunderground v.1.15,2013-04-30 13:12:00,
2013-04-30 09:22:00,58.2,51.7,30.32,NE,49,1.0,5.0,79,0.00,,,0.00,Wunderground v.1.15,2013-04-30 13:22:00,
2013-04-30 09:27:00,58.7,51.9,30.33,NNE,13,2.0,5.0,78,0.00,,,0.00,Wunderground v.1.15,2013-04-30 13:27:00,
2013-04-30 09:32:00,58.9,51.7,30.33,East,92,2.0,5.0,77,0.00,,,0.00,Wunderground v.1.15,2013-04-30 13:32:00,
2013-04-30 09:37:00,59.3,52.1,30.33,ENE,62,2.0,5.0,77,0.00,,,0.00,Wunderground v.1.15,2013-04-30 13:37:00,
2013-04-30 09:42:00,59.6,51.7,30.33,ESE,123,2.0,2.0,75,0.00,,,0.00,Wunderground v.1.15,2013-04-30 13:42:00,
2013-04-30 09:47:00,59.9,52.0,30.33,SSE,158,2.0,5.0,75,0.00,,,0.00,Wunderground v.1.15,2013-04-30 13:47:00,
2013-04-30 09:52:00,59.8,51.5,30.33,SE,130,2.0,5.0,74,0.00,,,0.00,Wunderground v.1.15,2013-04-30 13:52:00,
2013-04-30 09:57:00,59.4,51.5,30.33,ESE,123,3.0,5.0,75,0.00,,,0.00,Wunderground v.1.15,2013-04-30 13:57:00,
2013-04-30 10:02:00,59.6,52.0,30.33,East,93,3.0,3.0,76,0.00,,,0.00,Wunderground v.1.15,2013-04-30 14:02:00,
2013-04-30 10:07:00,59.8,51.9,30.33,NNE,22,2.0,5.0,75,0.00,,,0.00,Wunderground v.1.15,2013-04-30 14:07:00,
2013-04-30 10:12:00,59.9,52.0,30.33,NNE,15,2.0,5.0,75,0.00,,,0.00,Wunderground v.1.15,2013-04-30 14:12:00,
2013-04-30 10:22:00,59.2,51.3,30.33,ENE,67,3.0,3.0,75,0.00,,,0.00,Wunderground v.1.15,2013-04-30 14:22:00,
2013-04-30 10:27:00,59.0,51.1,30.34,ESE,118,3.0,5.0,75,0.00,,,0.00,Wunderground v.1.15,2013-04-30 14:27:00,
2013-04-30 10:37:00,59.5,52.3,30.33,NNE,14,2.0,5.0,77,0.00,,,0.00,Wunderground v.1.15,2013-04-30 14:37:00,
2013-04-30 10:42:00,59.2,51.3,30.33,NE,43,4.0,5.0,75,0.00,,,0.00,Wunderground v.1.15,2013-04-30 14:42:00,
2013-04-30 10:47:00,59.1,51.2,30.34,ESE,121,4.0,5.0,75,0.00,,,0.00,Wunderground v.1.15,2013-04-30 14:47:00,
2013-04-30 10:52:00,59.6,52.7,30.33,NNE,33,3.0,5.0,78,0.00,,,0.00,Wunderground v.1.15,2013-04-30 14:52:00,
2013-04-30 10:57:00,59.8,51.9,30.33,East,99,3.0,5.0,75,0.00,,,0.00,Wunderground v.1.15,2013-04-30 14:57:00,
2013-04-30 11:02:00,60.1,52.1,30.33,SSE,149,3.0,5.0,75,0.00,,,0.00,Wunderground v.1.15,2013-04-30 15:02:00,
2013-04-30 11:07:00,60.7,52.0,30.34,East,94,2.0,6.0,73,0.00,,,0.00,Wunderground v.1.15,2013-04-30 15:07:00,
2013-04-30 11:12:00,60.5,52.2,30.33,SE,128,2.0,5.0,74,0.00,,,0.00,Wunderground v.1.15,2013-04-30 15:12:00,
2013-04-30 11:17:00,60.5,51.8,30.33,ENE,60,3.0,5.0,73,0.00,,,0.00,Wunderground v.1.15,2013-04-30 15:17:00,
2013-04-30 11:27:00,60.2,51.5,30.33,ENE,65,3.0,6.0,73,0.00,,,0.00,Wunderground v.1.15,2013-04-30 15:27:00,
2013-04-30 11:32:00,59.8,51.5,30.34,East,86,4.0,4.0,74,0.00,,,0.00,Wunderground v.1.15,2013-04-30 15:32:00,
2013-04-30 11:37:00,59.8,51.5,30.34,NNE,23,3.0,5.0,74,0.00,,,0.00,Wunderground v.1.15,2013-04-30 15:37:00,
2013-04-30 11:42:00,59.8,52.2,30.33,NNE,30,3.0,5.0,76,0.00,,,0.00,Wunderground v.1.15,2013-04-30 15:42:00,
2013-04-30 11:52:00,60.1,51.8,30.34,ESE,107,3.0,3.0,74,0.00,,,0.00,Wunderground v.1.15,2013-04-30 15:52:00,
2013-04-30 11:57:00,60.9,52.6,30.34,SSE,163,2.0,5.0,74,0.00,,,0.00,Wunderground v.1.15,2013-04-30 15:57:00,
2013-04-30 12:02:00,61.1,52.0,30.34,ENE,77,2.0,5.0,72,0.00,,,0.00,Wunderground v.1.15,2013-04-30 16:02:00,
2013-04-30 12:07:00,61.1,52.4,30.34,SSE,148,3.0,9.0,73,0.00,,,0.00,Wunderground v.1.15,2013-04-30 16:07:00,
2013-04-30 12:12:00,61.0,51.5,30.34,ESE,121,3.0,5.0,71,0.00,,,0.00,Wunderground v.1.15,2013-04-30 16:12:00,
2013-04-30 12:17:00,60.1,51.0,30.33,SSE,162,4.0,5.0,72,0.00,,,0.00,Wunderground v.1.15,2013-04-30 16:17:00,
2013-04-30 12:27:00,59.8,51.5,30.33,NE,51,3.0,6.0,74,0.00,,,0.00,Wunderground v.1.15,2013-04-30 16:27:00,
2013-04-30 12:32:00,59.7,51.0,30.33,East,97,3.0,3.0,73,0.00,,,0.00,Wunderground v.1.15,2013-04-30 16:32:00,
2013-04-30 12:37:00,59.5,50.5,30.33,ENE,66,4.0,4.0,72,0.00,,,0.00,Wunderground v.1.15,2013-04-30 16:37:00,
2013-04-30 12:42:00,59.5,50.8,30.33,NE,49,3.0,3.0,73,0.00,,,0.00,Wunderground v.1.15,2013-04-30 16:42:00,
2013-04-30 12:47:00,60.8,52.1,30.33,ESE,115,2.0,5.0,73,0.00,,,0.00,Wunderground v.1.15,2013-04-30 16:47:00,
2013-04-30 12:52:00,61.2,50.6,30.33,ESE,110,2.0,5.0,68,0.00,,,0.00,Wunderground v.1.15,2013-04-30 16:52:00,
2013-04-30 12:57:00,60.5,49.9,30.33,ESE,112,4.0,5.0,68,0.00,,,0.00,Wunderground v.1.15,2013-04-30 16:57:00,
2013-04-30 13:02:00,60.4,49.8,30.33,East,96,4.0,4.0,68,0.00,,,0.00,Wunderground v.1.15,2013-04-30 17:02:00,
2013-04-30 13:07:00,60.4,49.4,30.33,SSE,167,4.0,6.0,67,0.00,,,0.00,Wunderground v.1.15,2013-04-30 17:07:00,
2013-04-30 13:12:00,60.0,49.0,30.33,East,101,4.0,6.0,67,0.00,,,0.00,Wunderground v.1.15,2013-04-30 17:12:00,
2013-04-30 13:17:00,60.0,49.0,30.33,NE,49,4.0,6.0,67,0.00,,,0.00,Wunderground v.1.15,2013-04-30 17:17:00,
2013-04-30 13:27:00,60.2,48.8,30.32,ENE,59,3.0,5.0,66,0.00,,,0.00,Wunderground v.1.15,2013-04-30 17:27:00,
2013-04-30 13:32:00,61.1,48.8,30.32,East,80,3.0,3.0,64,0.00,,,0.00,Wunderground v.1.15,2013-04-30 17:32:00,
2013-04-30 13:37:00,61.3,47.7,30.33,ENE,61,3.0,5.0,61,0.00,,,0.00,Wunderground v.1.15,2013-04-30 17:37:00,
2013-04-30 13:47:00,60.6,46.6,30.33,SE,139,4.0,6.0,60,0.00,,,0.00,Wunderground v.1.15,2013-04-30 17:47:00,
2013-04-30 13:52:00,60.2,45.8,30.33,East,96,5.0,5.0,59,0.00,,,0.00,Wunderground v.1.15,2013-04-30 17:52:00,
2013-04-30 13:57:00,60.7,47.2,30.33,SSE,157,4.0,7.0,61,0.00,,,0.00,Wunderground v.1.15,2013-04-30 17:57:00,
2013-04-30 14:02:00,61.0,45.7,30.33,ESE,103,3.0,3.0,57,0.00,,,0.00,Wunderground v.1.15,2013-04-30 18:02:00,
2013-04-30 14:07:00,61.5,46.6,30.33,SE,144,3.0,5.0,58,0.00,,,0.00,Wunderground v.1.15,2013-04-30 18:07:00,
2013-04-30 14:17:00,62.0,46.1,30.33,ESE,115,3.0,4.0,56,0.00,,,0.00,Wunderground v.1.15,2013-04-30 18:17:00,
2013-04-30 14:22:00,61.7,45.8,30.33,South,170,4.0,6.0,56,0.00,,,0.00,Wunderground v.1.15,2013-04-30 18:22:00,
2013-04-30 14:27:00,61.5,46.1,30.33,SE,134,3.0,6.0,57,0.00,,,0.00,Wunderground v.1.15,2013-04-30 18:27:00,
2013-04-30 14:37:00,62.0,45.2,30.34,SE,125,3.0,5.0,54,0.00,,,0.00,Wunderground v.1.15,2013-04-30 18:37:00,
2013-04-30 14:42:00,61.7,44.4,30.34,East,88,3.0,3.0,53,0.00,,,0.00,Wunderground v.1.15,2013-04-30 18:42:00,
2013-04-30 14:47:00,61.5,44.7,30.34,ESE,109,3.0,5.0,54,0.00,,,0.00,Wunderground v.1.15,2013-04-30 18:47:00,
2013-04-30 14:52:00,61.4,44.6,30.34,SE,131,3.0,3.0,54,0.00,,,0.00,Wunderground v.1.15,2013-04-30 18:52:00,
2013-04-30 14:57:00,61.3,44.0,30.34,SE,141,3.0,5.0,53,0.00,,,0.00,Wunderground v.1.15,2013-04-30 18:57:00,
2013-04-30 15:02:00,61.3,44.5,30.34,East,92,3.0,11.0,54,0.00,,,0.00,Wunderground v.1.15,2013-04-30 19:02:00,
2013-04-30 15:07:00,61.1,45.3,30.34,SE,143,3.0,11.0,56,0.00,,,0.00,Wunderground v.1.15,2013-04-30 19:07:00,
2013-04-30 15:12:00,61.3,45.0,30.34,ENE,66,4.0,4.0,55,0.00,,,0.00,Wunderground v.1.15,2013-04-30 19:12:00,
2013-04-30 15:17:00,60.7,44.4,30.34,ESE,103,3.0,5.0,55,0.00,,,0.00,Wunderground v.1.15,2013-04-30 19:17:00,
2013-04-30 15:27:00,61.2,43.9,30.34,NE,43,2.0,5.0,53,0.00,,,0.00,Wunderground v.1.15,2013-04-30 19:27:00,
2013-04-30 15:32:00,60.6,44.3,30.34,East,90,3.0,3.0,55,0.00,,,0.00,Wunderground v.1.15,2013-04-30 19:32:00,
2013-04-30 15:37:00,60.3,44.5,30.34,NE,55,4.0,11.0,56,0.00,,,0.00,Wunderground v.1.15,2013-04-30 19:37:00,
2013-04-30 15:42:00,60.0,44.3,30.34,SE,130,4.0,8.0,56,0.00,,,0.00,Wunderground v.1.15,2013-04-30 19:42:00,
2013-04-30 15:52:00,59.9,44.6,30.34,ENE,61,3.0,3.0,57,0.00,,,0.00,Wunderground v.1.15,2013-04-30 19:52:00,
2013-04-30 15:57:00,60.5,44.2,30.34,East,101,2.0,5.0,55,0.00,,,0.00,Wunderground v.1.15,2013-04-30 19:57:00,
2013-04-30 16:02:00,60.3,43.6,30.34,SSE,153,3.0,5.0,54,0.00,,,0.00,Wunderground v.1.15,2013-04-30 20:02:00,
2013-04-30 16:07:00,59.8,43.6,30.34,SE,144,4.0,5.0,55,0.00,,,0.00,Wunderground v.1.15,2013-04-30 20:07:00,
2013-04-30 16:12:00,59.5,43.8,30.34,ENE,73,4.0,4.0,56,0.00,,,0.00,Wunderground v.1.15,2013-04-30 20:12:00,
2013-04-30 16:22:00,59.3,42.6,30.34,SSE,156,3.0,5.0,54,0.00,,,0.00,Wunderground v.1.15,2013-04-30 20:22:00,
2013-04-30 16:27:00,59.7,42.5,30.34,SE,125,3.0,5.0,53,0.00,,,0.00,Wunderground v.1.15,2013-04-30 20:27:00,
2013-04-30 16:32:00,59.8,42.1,30.35,East,98,3.0,3.0,52,0.00,,,0.00,Wunderground v.1.15,2013-04-30 20:32:00,
2013-04-30 16:37:00,60.0,41.3,30.35,ENE,69,3.0,5.0,50,0.00,,,0.00,Wunderground v.1.15,2013-04-30 20:37:00,
2013-04-30 16:42:00,59.6,40.9,30.35,ESE,116,3.0,3.0,50,0.00,,,0.00,Wunderground v.1.15,2013-04-30 20:42:00,
2013-04-30 16:47:00,59.3,40.1,30.35,SE,142,4.0,4.0,49,0.00,,,0.00,Wunderground v.1.15,2013-04-30 20:47:00,
2013-04-30 16:52:00,59.1,40.5,30.35,ENE,67,4.0,5.0,50,0.00,,,0.00,Wunderground v.1.15,2013-04-30 20:52:00,
2013-04-30 16:57:00,58.9,41.3,30.35,ESE,121,4.0,5.0,52,0.00,,,0.00,Wunderground v.1.15,2013-04-30 20:57:00,
2013-04-30 17:02:00,58.6,40.5,30.35,NNE,21,4.0,4.0,51,0.00,,,0.00,Wunderground v.1.15,2013-04-30 21:02:00,
2013-04-30 17:07:00,58.3,40.2,30.35,ESE,119,4.0,5.0,51,0.00,,,0.00,Wunderground v.1.15,2013-04-30 21:07:00,
2013-04-30 17:12:00,58.1,40.6,30.35,ENE,74,3.0,5.0,52,0.00,,,0.00,Wunderground v.1.15,2013-04-30 21:12:00,
2013-04-30 17:17:00,57.6,39.6,30.36,SE,138,3.0,5.0,51,0.00,,,0.00,Wunderground v.1.15,2013-04-30 21:17:00,
2013-04-30 17:27:00,57.3,40.8,30.36,SE,126,3.0,5.0,54,0.00,,,0.00,Wunderground v.1.15,2013-04-30 21:27:00,
2013-04-30 17:32:00,57.0,41.0,30.36,East,98,2.0,2.0,55,0.00,,,0.00,Wunderground v.1.15,2013-04-30 21:32:00,
2013-04-30 17:37:00,56.8,40.8,30.36,NE,54,1.0,5.0,55,0.00,,,0.00,Wunderground v.1.15,2013-04-30 21:37:00,
2013-04-30 17:42:00,56.5,41.0,30.36,ESE,113,2.0,5.0,56,0.00,,,0.00,Wunderground v.1.15,2013-04-30 21:42:00,
2013-04-30 17:47:00,56.2,40.7,30.36,SE,140,2.0,5.0,56,0.00,,,0.00,Wunderground v.1.15,2013-04-30 21:47:00,
2013-04-30 17:52:00,56.0,41.0,30.36,SE,140,2.0,2.0,57,0.00,,,0.00,Wunderground v.1.15,2013-04-30 21:52:00,
2013-04-30 17:57:00,55.9,41.8,30.37,SE,140,1.0,5.0,59,0.00,,,0.00,Wunderground v.1.15,2013-04-30 21:57:00,
2013-04-30 18:02:00,55.8,41.7,30.37,NE,49,1.0,5.0,59,0.00,,,0.00,Wunderground v.1.15,2013-04-30 22:02:00,
2013-04-30 18:12:00,55.7,41.6,30.37,ESE,119,2.0,2.0,59,0.00,,,0.00,Wunderground v.1.15,2013-04-30 22:12:00,
2013-04-30 18:22:00,55.9,42.6,30.37,ENE,61,1.0,1.0,61,0.00,,,0.00,Wunderground v.1.15,2013-04-30 22:22:00,
2013-04-30 18:27:00,56.1,42.4,30.37,SSE,165,2.0,2.0,60,0.00,,,0.00,Wunderground v.1.15,2013-04-30 22:27:00,
2013-04-30 18:37:00,55.8,41.7,30.37,SSE,147,2.0,5.0,59,0.00,,,0.00,Wunderground v.1.15,2013-04-30 22:37:00,
2013-04-30 18:42:00,55.8,42.5,30.37,NE,49,1.0,5.0,61,0.00,,,0.00,Wunderground v.1.15,2013-04-30 22:42:00,
2013-04-30 18:47:00,55.7,42.5,30.37,SSW,195,1.0,5.0,61,0.00,,,0.00,Wunderground v.1.15,2013-04-30 22:47:00,
2013-04-30 18:52:00,55.6,42.4,30.37,SE,138,1.0,5.0,61,0.00,,,0.00,Wunderground v.1.15,2013-04-30 22:52:00,
2013-04-30 18:57:00,55.5,42.7,30.37,SSE,167,1.0,5.0,62,0.00,,,0.00,Wunderground v.1.15,2013-04-30 22:57:00,
2013-04-30 19:02:00,55.2,42.0,30.37,SE,126,1.0,5.0,61,0.00,,,0.00,Wunderground v.1.15,2013-04-30 23:02:00,
2013-04-30 19:07:00,55.1,42.7,30.37,ESE,105,1.0,5.0,63,0.00,,,0.00,Wunderground v.1.15,2013-04-30 23:07:00,
2013-04-30 19:12:00,54.9,42.9,30.37,ESE,104,1.0,5.0,64,0.00,,,0.00,Wunderground v.1.15,2013-04-30 23:12:00,
2013-04-30 19:22:00,54.5,41.7,30.36,East,83,1.0,5.0,62,0.00,,,0.00,Wunderground v.1.15,2013-04-30 23:22:00,
2013-04-30 19:27:00,54.2,41.5,30.36,ESE,121,2.0,5.0,62,0.00,,,0.00,Wunderground v.1.15,2013-04-30 23:27:00,
2013-04-30 19:32:00,53.9,42.0,30.37,East,95,2.0,2.0,64,0.00,,,0.00,Wunderground v.1.15,2013-04-30 23:32:00,
2013-04-30 19:37:00,53.7,41.8,30.37,ENE,77,1.0,5.0,64,0.00,,,0.00,Wunderground v.1.15,2013-04-30 23:37:00,
2013-04-30 19:42:00,53.5,41.6,30.37,ENE,77,0.0,5.0,64,0.00,,,0.00,Wunderground v.1.15,2013-04-30 23:42:00,
2013-04-30 19:47:00,53.2,41.7,30.37,SE,136,1.0,5.0,65,0.00,,,0.00,Wunderground v.1.15,2013-04-30 23:47:00,
2013-04-30 19:52:00,53.0,42.3,30.37,SE,136,1.0,1.0,67,0.00,,,0.00,Wunderground v.1.15,2013-04-30 23:52:00,
2013-04-30 19:57:00,52.7,42.0,30.37,East,96,1.0,5.0,67,0.00,,,0.00,Wunderground v.1.15,2013-04-30 23:57:00,
2013-04-30 20:02:00,52.5,41.9,30.36,ENE,78,1.0,5.0,67,0.00,,,0.00,Wunderground v.1.15,2013-05-01 00:02:00,
2013-04-30 20:07:00,52.3,42.0,30.37,ENE,78,1.0,5.0,68,0.00,,,0.00,Wunderground v.1.15,2013-05-01 00:07:00,
2013-04-30 20:12:00,52.0,41.8,30.37,ENE,78,0.0,5.0,68,0.00,,,0.00,Wunderground v.1.15,2013-05-01 00:12:00,
2013-04-30 20:17:00,51.8,41.9,30.37,East,80,0.0,5.0,69,0.00,,,0.00,Wunderground v.1.15,2013-05-01 00:17:00,
2013-04-30 20:27:00,51.4,41.9,30.37,East,93,0.0,5.0,70,0.00,,,0.00,Wunderground v.1.15,2013-05-01 00:27:00,
2013-04-30 20:32:00,51.3,41.8,30.37,East,93,0.0,5.0,70,0.00,,,0.00,Wunderground v.1.15,2013-05-01 00:32:00,
2013-04-30 20:37:00,51.2,41.7,30.37,East,93,0.0,5.0,70,0.00,,,0.00,Wunderground v.1.15,2013-05-01 00:37:00,
2013-04-30 20:42:00,51.0,41.9,30.37,East,93,0.0,5.0,71,0.00,,,0.00,Wunderground v.1.15,2013-05-01 00:42:00,
2013-04-30 20:47:00,50.9,41.8,30.37,East,93,0.0,5.0,71,0.00,,,0.00,Wunderground v.1.15,2013-05-01 00:47:00,
2013-04-30 20:52:00,50.7,42.0,30.37,East,93,0.0,5.0,72,0.00,,,0.00,Wunderground v.1.15,2013-05-01 00:52:00,
2013-04-30 20:57:00,50.6,41.9,30.37,East,93,0.0,5.0,72,0.00,,,0.00,Wunderground v.1.15,2013-05-01 00:57:00,
2013-04-30 21:02:00,50.6,41.9,30.37,East,93,0.0,5.0,72,0.00,,,0.00,Wunderground v.1.15,2013-05-01 01:02:00,
2013-04-30 21:07:00,50.5,41.8,30.38,East,93,0.0,5.0,72,0.00,,,0.00,Wunderground v.1.15,2013-05-01 01:07:00,
2013-04-30 21:12:00,50.4,41.7,30.38,East,93,0.0,5.0,72,0.00,,,0.00,Wunderground v.1.15,2013-05-01 01:12:00,
2013-04-30 21:17:00,50.4,42.1,30.38,East,93,0.0,5.0,73,0.00,,,0.00,Wunderground v.1.15,2013-05-01 01:17:00,
2013-04-30 21:27:00,50.1,42.1,30.38,East,93,0.0,5.0,74,0.00,,,0.00,Wunderground v.1.15,2013-05-01 01:27:00,
2013-04-30 21:32:00,49.9,41.9,30.38,East,93,0.0,5.0,74,0.00,,,0.00,Wunderground v.1.15,2013-05-01 01:32:00,
2013-04-30 21:37:00,49.7,42.1,30.38,East,93,0.0,5.0,75,0.00,,,0.00,Wunderground v.1.15,2013-05-01 01:37:00,
2013-04-30 21:42:00,49.6,42.0,30.38,East,93,0.0,5.0,75,0.00,,,0.00,Wunderground v.1.15,2013-05-01 01:42:00,
2013-04-30 21:47:00,49.5,42.2,30.38,East,93,0.0,5.0,76,0.00,,,0.00,Wunderground v.1.15,2013-05-01 01:47:00,
2013-04-30 21:52:00,49.3,42.1,30.38,East,93,0.0,5.0,76,0.00,,,0.00,Wunderground v.1.15,2013-05-01 01:52:00,
2013-04-30 21:57:00,49.2,42.0,30.38,East,93,0.0,5.0,76,0.00,,,0.00,Wunderground v.1.15,2013-05-01 01:57:00,
2013-04-30 22:02:00,49.2,42.0,30.38,East,93,0.0,5.0,76,0.00,,,0.00,Wunderground v.1.15,2013-05-01 02:02:00,
2013-04-30 22:07:00,49.1,42.2,30.38,East,93,0.0,5.0,77,0.00,,,0.00,Wunderground v.1.15,2013-05-01 02:07:00,
2013-04-30 22:12:00,49.1,42.5,30.37,East,93,0.0,5.0,78,0.00,,,0.00,Wunderground v.1.15,2013-05-01 02:12:00,
2013-04-30 22:17:00,49.0,42.1,30.37,East,93,0.0,5.0,77,0.00,,,0.00,Wunderground v.1.15,2013-05-01 02:17:00,
2013-04-30 22:27:00,48.8,42.2,30.37,East,93,0.0,5.0,78,0.00,,,0.00,Wunderground v.1.15,2013-05-01 02:27:00,
2013-04-30 22:32:00,48.7,42.5,30.37,East,93,0.0,5.0,79,0.00,,,0.00,Wunderground v.1.15,2013-05-01 02:32:00,
2013-04-30 22:42:00,48.4,42.2,30.37,East,93,0.0,5.0,79,0.00,,,0.00,Wunderground v.1.15,2013-05-01 02:42:00,
2013-04-30 22:47:00,48.4,42.5,30.36,East,93,0.0,5.0,80,0.00,,,0.00,Wunderground v.1.15,2013-05-01 02:47:00,
2013-04-30 22:52:00,48.3,42.4,30.37,East,93,0.0,5.0,80,0.00,,,0.00,Wunderground v.1.15,2013-05-01 02:52:00,
2013-04-30 22:57:00,48.2,42.3,30.36,East,93,0.0,5.0,80,0.00,,,0.00,Wunderground v.1.15,2013-05-01 02:57:00,
2013-04-30 23:02:00,48.0,42.1,30.37,East,93,0.0,5.0,80,0.00,,,0.00,Wunderground v.1.15,2013-05-01 03:02:00,
2013-04-30 23:07:00,47.8,41.9,30.37,East,93,0.0,5.0,80,0.00,,,0.00,Wunderground v.1.15,2013-05-01 03:07:00,
2013-04-30 23:12:00,47.6,42.1,30.37,East,93,0.0,5.0,81,0.00,,,0.00,Wunderground v.1.15,2013-05-01 03:12:00,
2013-04-30 23:17:00,47.4,42.2,30.37,East,93,0.0,5.0,82,0.00,,,0.00,Wunderground v.1.15,2013-05-01 03:17:00,
2013-04-30 23:22:00,47.2,42.0,30.36,East,93,0.0,5.0,82,0.00,,,0.00,Wunderground v.1.15,2013-05-01 03:22:00,
2013-04-30 23:27:00,46.9,42.0,30.36,East,93,0.0,5.0,83,0.00,,,0.00,Wunderground v.1.15,2013-05-01 03:27:00,
2013-04-30 23:32:00,46.6,41.7,30.36,East,93,0.0,5.0,83,0.00,,,0.00,Wunderground v.1.15,2013-05-01 03:32:00,
2013-04-30 23:37:00,46.4,41.8,30.36,East,93,0.0,5.0,84,0.00,,,0.00,Wunderground v.1.15,2013-05-01 03:37:00,
2013-04-30 23:42:00,46.1,41.8,30.36,East,93,0.0,5.0,85,0.00,,,0.00,Wunderground v.1.15,2013-05-01 03:42:00,
2013-04-30 23:47:00,46.0,41.7,30.36,East,93,0.0,5.0,85,0.00,,,0.00,Wunderground v.1.15,2013-05-01 03:47:00,
2013-04-30 23:52:00,45.9,41.9,30.37,East,93,0.0,5.0,86,0.00,,,0.00,Wunderground v.1.15,2013-05-01 03:52:00,
2013-04-30 23:57:00,45.9,41.9,30.37,East,93,0.0,5.0,86,0.00,,,0.00,Wunderground v.1.15,2013-05-01 03:57:00,